Regional Weather Roundup
Issued by NWS

Home | Current Version | Previous Version | Text Only | Print | Product List | Glossary Off
Versions: 1 2 3 4 5 6 7 8 9 10 11 12 13 14 15 16 17 18 19 20 21 22 23 24 25 26 27 28 29 30 31 32 33 34 35 36 37 38 39 40 41 42 43 44 45 46 47 48 49 50

000
ASUS43 KMKX 180721
RWRWI

WISCONSIN REGIONAL WEATHER ROUNDUP
NATIONAL WEATHER SERVICE MILWAUKEE/SULLIVAN WI
200 AM CDT THU SEP 18 2014

NOTE: "FAIR" INDICATES FEW OR NO CLOUDS BELOW 12,000 FEET WITH NO
SIGNIFICANT WEATHER AND/OR OBSTRUCTIONS TO VISIBILITY.

WIZ001-002-006>008-014>016-023>028-180800-
NORTHWEST WISCONSIN

CITY           SKY/WX    TMP DP  RH WIND       PRES   REMARKS
SUPERIOR ARPT  CLOUDY    43  38  83 E7        30.16R
ASHLAND        CLOUDY    45  40  82 NE8       30.15S
HAYWARD        CLOUDY    44  41  89 N6        30.12S
SIREN          CLOUDY    46  42  85 NE5       30.10S
RICE LAKE      CLEAR     46  43  92 N7        30.10S
LADYSMITH      MOCLDY    46  45  94 NE5       30.12S
EAU CLAIRE     CLEAR     49  46  90 NE6       30.07R
MENOMONIE      SUNNY     48  47  93 N6        30.08R
NEW RICHMOND   CLEAR     47  46  95 NE6       30.08R
OSCEOLA        CLEAR     47  47 100 NE3       30.11S
$$

WIZ003>005-009-010-017-018-180800-
NORTH CENTRAL WISCONSIN

CITY           SKY/WX    TMP DP  RH WIND       PRES   REMARKS
WOODRUFF       CLOUDY    43  40  89 E3        30.13R
RHINELANDER    CLOUDY    45  41  86 E6        30.13R
EAGLE RIVER    CLOUDY    41  37  86 NE7       30.13R
LAND O LAKES   CLOUDY    39  37  91 NE5       30.15R
PHILLIPS       CLOUDY    46  43  90 E5        30.11R
TOMAHAWK       CLOUDY    46  43  89 E3        30.12R
MEDFORD        CLOUDY    48  47  95 E7        30.09R
MERRILL        CLOUDY    50  48  92 CALM      30.10S
$$

WIZ029-030-035-036-043>047-180800-
CENTRAL WISCONSIN

CITY           SKY/WX    TMP DP  RH WIND       PRES   REMARKS
WAUSAU         PTCLDY    47  44  90 E5        30.10R
MOSINEE        PTCLDY    45  45 100 E9        30.11R
MARSHFIELD     CLEAR     50  47  89 E9        30.08R
STEVENS POINT  CLEAR     46  43  90 E7        30.11R
WAUPACA        CLOUDY    51  47  86 NE8       30.12R
WAUTOMA        CLOUDY    51  49  93 NE7       30.10R
WISC RAPIDS    CLEAR     50  47  89 E10       30.10R
CAMP DOUGLAS   CLEAR     45  45 100 VRB1      30.07R
$$

WIZ011>013-019>022-031-037>040-048>050-180800-
NORTHEAST WISCONSIN

CITY           SKY/WX    TMP DP  RH WIND       PRES   REMARKS
ANTIGO         CLOUDY    44  42  93 E5        30.12R
STURGEON BAY   CLOUDY    46  37  71 NE12      30.14R
GREEN BAY      CLOUDY    50  45  83 NE17G24   30.11R
MANITOWOC      CLOUDY    51  46  83 NE7G16    30.10R
APPLETON       CLOUDY    50  43  76 NE12G18   30.11R
CLINTONVILLE   PTCLDY    45  41  87 NE8       30.11S
OSHKOSH        CLOUDY    52  48  86 NE12      30.09R
$$

WIZ032>034-041-042-053>061-180800-
SOUTHWEST WISCONSIN

CITY           SKY/WX    TMP DP  RH WIND       PRES   REMARKS
LA CROSSE      CLEAR     53  50  89 SE5       30.05R
SPARTA         CLEAR     42  42  98 CALM      30.06S
VIROQUA        FAIR      51  51  99 CALM      30.05S
BOSCOBEL       FOG       50  49  96 CALM      30.06R VSB 1/4
PRAIRIE DU CHI CLOUDY    49  47  94 E3        30.05R
PLATTEVILLE    FAIR      49  48  93 CALM      30.05S
$$

WIZ056-057-062-063-064-067-068-180800-
SOUTH CENTRAL WISCONSIN

CITY           SKY/WX    TMP DP  RH WIND       PRES   REMARKS
BARABOO/DELLS  FAIR      50  49  94 NE6       30.07R FOG
LONE ROCK      FOG       52  48  86 CALM      30.06R VSB 1/4
WATERTOWN      CLEAR     46  46 100 NE3       30.06R
MADISON        CLEAR     47  46  97 CALM      30.05S FOG
MIDDLETON      FAIR      46  46  99 CALM      30.06R
MONROE         CLEAR     54  50  87 CALM      30.05S
JANESVILLE     CLEAR     48  46  93 CALM      30.05R
$$

WIZ051-052-058>065-066-070>072-180800-
SOUTHEAST WISCONSIN

CITY           SKY/WX    TMP DP  RH WIND       PRES   REMARKS
MILWAUKEE      PTCLDY    54  49  83 N14       30.06R
WAUKESHA       CLEAR     50  46  87 N6        30.08R
MILWAUKEE/TIMM CLEAR     52  46  82 NE8       30.08R
RACINE         CLEAR     51  47  86 W5        30.06R
BURLINGTON     CLEAR     41  41 100 CALM      30.05R FOG
KENOSHA        CLEAR     46  46 100 W3        30.05R FOG
FOND DU LAC    CLOUDY    51  47  86 NE10      30.09R
SHEBOYGAN      PTCLDY    50  46  86 N9        30.09R
WEST BEND      CLOUDY    50  46  87 N7        30.08R
JUNEAU         MOCLDY    50  49  97 NE10G18   30.08R FOG
$$

LSZ147-162-180800-
LAKE SUPERIOR

STATION/POSITION TIME  TEMP    WIND        PRES    WAVE
                       AIR SEA DIR/SP/G            HT/PER
                 (UTC) (F)     (DEG/KT/KT) (MB)    (FT/S)
W MID LAKE BUOY  0650   44 47  120/ 12/ 14 1021.9R   3/ 6
DEVILS ISLAND    0700   45     100/ 14/ 16 1022.1R
PORT WING        0640   44      70/  5/  8 1021.3R
SAXON HARBOR     0600   47      70/  5/  7 1021.0R
$$

LMZ867-665-643>646-180800-
LAKE MICHIGAN

STATION/POSITION TIME  TEMP    WIND        PRES    WAVE
                       AIR SEA DIR/SP/G            HT/PER
                 (UTC) (F)     (DEG/KT/KT) (MB)    (FT/S)
N MID LAKE BUOY  0650   48 58   20/ 16/ 19 1019.9R   4/ 5
NORTHPORT PIER   0600   47      30/ 10/ 16 1020.3R
KEWAUNEE LAKESHO 0700   49      30/ 13/ 21 1018.6R
SHEBOYGAN LAKESH 0700   50 49  360/ 17/ 18 1019.1R
PORT WASHINGTON  0640   53     360/  5/ 10 1019.0R
ATWATER BUOY     0700   55      10/ 19/ 21 1018.8R
MILWAUKEE LAKESH 0700   55      10/ 15/ 20   N/A
S MID LAKE BUOY  0650   63 65  230/  6/  8 1017.4R   0
KENOSHA   LAKESH 0700   55     270/  4/  5 1017.3R
$$

TC  - TEMPERATURE IN CELSIUS
VSB - VISIBILITY IN STATUTE MILES
WCI - WIND CHILL INDEX
HX  - HEAT INDEX



USA.gov is the U.S. government's official web portal to all federal, state and local government web resources and services.